Volver al catálogo

STARLINK-31995

ActivoComunicacionesVLEO
NORAD 59958·PAYLOAD·🇺🇸 United States

Lanzado Jun 5, 2024 desde Cape Canaveral Space Force Station

Loading…

Próximos Pases (próximas 24 horas)

TLE

ActualizadoSource: CelesTrak SupGP

Época: Sep 15, 2026, 02:50 UTC

1 59958C 24107P   26258.11854167 -.00016557  00000+0 -48909-3 0  2582
2 59958  53.1579 262.8511 0001312  84.5211  87.5897 15.34404105    13

Sigue STARLINK-31995 en tiempo real con AllMySat

Download on the App Store